TAM9528 SLVR-SBGR

Flight info

Callsign TAM9528
Flight time N/A
Altitude 35000
Route GAVOS UM411 ATERU UZ42 ZARES
Aircraft A321/M-SDE3FGHIRWY/LB1

Departure

Time 2026-04-29 00:04
Airport Viru Viru International Airport (SLVR)

Arrival

Time N/A
Airport São Paulo/Guarulhos–Governor André Franco Montoro International Airport (SBGR)
Time Latitude Longitude Altitude Speed Heading
2026-04-28 23:36 -17.64683 -63.14028 1231 ft 0 kts 233°
2026-04-28 23:55 -17.64675 -63.14017 1231 ft 4 kts 232°
2026-04-28 23:55 -17.64658 -63.13995 1231 ft 4 kts 225°
2026-04-28 23:55 -17.64637 -63.13978 1231 ft 4 kts 205°
2026-04-28 23:56 -17.64631 -63.13975 1231 ft 0 kts 201°
2026-04-28 23:57 -17.64633 -63.13975 1231 ft 1 kts 196°
2026-04-28 23:58 -17.64647 -63.13974 1231 ft 2 kts 168°
2026-04-28 23:58 -17.64669 -63.13952 1231 ft 6 kts 129°
2026-04-28 23:58 -17.64691 -63.13922 1231 ft 9 kts 131°
2026-04-28 23:58 -17.64761 -63.13873 1231 ft 10 kts 147°
2026-04-28 23:59 -17.64801 -63.13844 1231 ft 10 kts 144°
2026-04-28 23:59 -17.64864 -63.13802 1231 ft 11 kts 141°
2026-04-28 23:59 -17.64867 -63.13727 1231 ft 11 kts 65°
2026-04-28 23:59 -17.64825 -63.13655 1231 ft 12 kts 58°
2026-04-29 00:00 -17.64799 -63.13575 1231 ft 12 kts 109°
2026-04-29 00:00 -17.64860 -63.13515 1231 ft 13 kts 146°
2026-04-29 00:00 -17.64935 -63.13463 1231 ft 13 kts 148°
2026-04-29 00:00 -17.65017 -63.13409 1231 ft 14 kts 147°
2026-04-29 00:01 -17.65102 -63.13351 1231 ft 15 kts 147°
2026-04-29 00:01 -17.65191 -63.13290 1228 ft 16 kts 147°
2026-04-29 00:01 -17.65283 -63.13229 1231 ft 16 kts 148°
2026-04-29 00:01 -17.65380 -63.13164 1231 ft 17 kts 147°
2026-04-29 00:02 -17.65479 -63.13097 1232 ft 17 kts 147°
2026-04-29 00:02 -17.65583 -63.13027 1232 ft 18 kts 148°
2026-04-29 00:02 -17.65692 -63.12954 1232 ft 19 kts 146°
2026-04-29 00:02 -17.65805 -63.12877 1232 ft 20 kts 146°
2026-04-29 00:03 -17.65866 -63.12767 1232 ft 18 kts 73°
2026-04-29 00:03 -17.65791 -63.12682 1234 ft 16 kts
2026-04-29 00:03 -17.65618 -63.12771 1239 ft 57 kts 328°
2026-04-29 00:03 -17.65055 -63.13150 1231 ft 132 kts 327°
2026-04-29 00:04 -17.64123 -63.13775 1288 ft 184 kts 326°
2026-04-29 00:04 -17.63022 -63.14537 1937 ft 191 kts 323°
2026-04-29 00:04 -17.61931 -63.15372 2674 ft 200 kts 320°
2026-04-29 00:04 -17.61136 -63.16653 3089 ft 227 kts 285°
2026-04-29 00:05 -17.61305 -63.18375 3285 ft 256 kts 246°
2026-04-29 00:05 -17.62533 -63.19800 3790 ft 273 kts 217°
2026-04-29 00:05 -17.64297 -63.20605 4420 ft 284 kts 192°
2026-04-29 00:05 -17.66287 -63.20499 5056 ft 292 kts 162°
2026-04-29 00:06 -17.68019 -63.19392 5678 ft 296 kts 131°
2026-04-29 00:06 -17.69043 -63.17579 6291 ft 295 kts 103°
2026-04-29 00:06 -17.69536 -63.15485 6924 ft 296 kts 99°
2026-04-29 00:06 -17.70002 -63.13360 7567 ft 300 kts 99°
2026-04-29 00:07 -17.70472 -63.11206 8175 ft 304 kts 99°
2026-04-29 00:07 -17.70950 -63.09029 8784 ft 307 kts 99°
2026-04-29 00:07 -17.71435 -63.06842 9351 ft 311 kts 100°
2026-04-29 00:07 -17.71932 -63.04616 9928 ft 315 kts 100°
2026-04-29 00:08 -17.72436 -63.02354 10283 ft 326 kts 100°
2026-04-29 00:08 -17.72967 -62.99960 10400 ft 345 kts 101°
2026-04-29 00:08 -17.73520 -62.97467 10512 ft 363 kts 101°
2026-04-29 00:08 -17.74106 -62.94830 10633 ft 380 kts 101°
2026-04-29 00:09 -17.74715 -62.92102 10969 ft 387 kts 101°
2026-04-29 00:09 -17.75333 -62.89349 11468 ft 389 kts 102°
2026-04-29 00:09 -17.75953 -62.86581 11995 ft 390 kts 102°
2026-04-29 00:09 -17.76574 -62.83797 12518 ft 393 kts 102°
2026-04-29 00:10 -17.77195 -62.81003 12995 ft 394 kts 102°
2026-04-29 00:10 -17.77817 -62.78187 13518 ft 396 kts 103°
2026-04-29 00:10 -17.78440 -62.75369 13995 ft 398 kts 103°
2026-04-29 00:10 -17.79071 -62.72524 14421 ft 400 kts 103°
2026-04-29 00:11 -17.79703 -62.69665 14847 ft 403 kts 103°
2026-04-29 00:11 -17.80336 -62.66785 15264 ft 405 kts 103°
2026-04-29 00:11 -17.81605 -62.61011 16117 ft 411 kts 103°
2026-04-29 00:12 -17.82253 -62.58075 16547 ft 414 kts 103°
2026-04-29 00:12 -17.82904 -62.55118 16975 ft 417 kts 103°
2026-04-29 00:12 -17.83558 -62.52133 17410 ft 420 kts 103°
2026-04-29 00:12 -17.84214 -62.49141 17866 ft 422 kts 103°
2026-04-29 00:13 -17.84869 -62.46160 18300 ft 425 kts 103°
2026-04-29 00:13 -17.85533 -62.43128 18681 ft 428 kts 103°
2026-04-29 00:13 -17.86201 -62.40076 19057 ft 430 kts 103°
2026-04-29 00:13 -17.86874 -62.36994 19436 ft 433 kts 103°
2026-04-29 00:14 -17.87550 -62.33903 19802 ft 435 kts 103°
2026-04-29 00:14 -17.88233 -62.30782 20163 ft 438 kts 103°
2026-04-29 00:14 -17.88918 -62.27650 20513 ft 440 kts 103°
2026-04-29 00:14 -17.89594 -62.24558 20847 ft 442 kts 103°
2026-04-29 00:15 -17.90293 -62.21388 21176 ft 445 kts 103°
2026-04-29 00:15 -17.90991 -62.18205 21504 ft 448 kts 103°
2026-04-29 00:15 -17.91686 -62.15016 21827 ft 450 kts 103°
2026-04-29 00:15 -17.92389 -62.11790 22145 ft 452 kts 103°
2026-04-29 00:16 -17.93089 -62.08565 22464 ft 454 kts 103°
2026-04-29 00:16 -17.93783 -62.05359 22776 ft 457 kts 103°
2026-04-29 00:16 -17.94489 -62.02104 23080 ft 459 kts 103°
2026-04-29 00:16 -17.95200 -61.98822 23365 ft 462 kts 103°
2026-04-29 00:17 -17.95913 -61.95530 23644 ft 464 kts 103°
2026-04-29 00:17 -17.96630 -61.92216 23888 ft 466 kts 103°
2026-04-29 00:17 -17.97355 -61.88885 24135 ft 468 kts 103°
2026-04-29 00:17 -17.98082 -61.85539 24382 ft 471 kts 102°
2026-04-29 00:18 -17.98810 -61.82179 24624 ft 473 kts 102°
2026-04-29 00:18 -17.99558 -61.78810 24870 ft 475 kts 104°
2026-04-29 00:18 -18.00405 -61.75430 25116 ft 477 kts 105°
2026-04-29 00:18 -18.01324 -61.72074 25360 ft 479 kts 106°
2026-04-29 00:19 -18.02287 -61.68708 25597 ft 482 kts 107°
2026-04-29 00:19 -18.03265 -61.65328 25835 ft 484 kts 107°
2026-04-29 00:19 -18.04235 -61.61940 26070 ft 486 kts 106°
2026-04-29 00:19 -18.05177 -61.58565 26295 ft 488 kts 106°
2026-04-29 00:20 -18.06128 -61.55085 26524 ft 490 kts 105°
2026-04-29 00:20 -18.07044 -61.51679 26739 ft 492 kts 105°
2026-04-29 00:20 -18.07970 -61.48206 26963 ft 494 kts 105°
2026-04-29 00:20 -18.08904 -61.44710 27191 ft 496 kts 105°
2026-04-29 00:21 -18.09850 -61.41208 27418 ft 498 kts 105°
2026-04-29 00:21 -18.10823 -61.37697 27651 ft 500 kts 106°
2026-04-29 00:21 -18.11814 -61.34178 27883 ft 503 kts 106°
2026-04-29 00:21 -18.12823 -61.30644 28121 ft 504 kts 106°
2026-04-29 00:22 -18.13819 -61.27153 28363 ft 506 kts 106°
2026-04-29 00:22 -18.14823 -61.23603 28657 ft 507 kts 106°
2026-04-29 00:22 -18.15817 -61.20050 28966 ft 507 kts 105°
2026-04-29 00:22 -18.16153 -61.18845 29072 ft 507 kts 105°